Location: Makanda
(37.6176°N, 89.2090°W)
Time: 20:20:56
(UTC+00:00)

Okean 1 Rocket - Pass Details

Date: 23 September 2019
Orbit: 607 x 634 km, 82.5° (Epoch: 12 October)

Event Time Altitude Azimuth Distance (km) Brightness Sun altitude
Rises 00:55:25 0° 199° (SSW) 2,851 6.6 -12.9°
Reaches altitude 10° 00:57:41 10° 205° (SSW) 1,953 5.8 -13.4°
Maximum altitude 01:01:50 47° 280° (W) 807 4.1 -14.2°
Drops below altitude 10° 01:06:04 10° 355° (N) 1,977 5.9 -15.0°
Sets 01:08:23 0° 1° (N) 2,890 6.6 -15.4°
